Powrót do katalogu

FREGAT DEB

LostUNKNOWN
NORAD 46108·DEBRIS·🇷🇺 Russia

Wystrzelony Jul 18, 2011 z Baikonur Cosmodrome

Loading…

Następne Przeloty (najbliższe 24 godziny)

TLE

NieaktualneSource: Space-Track

Epoka: Oct 29, 2022, 21:26 UTC

1 46108U 11037JT  22302.89327025  .05783922  00000-0  71923+0 0  9993
2 46108  51.6994 181.4114 1689997 106.3312 272.9419 11.80220431 89878

Śledź FREGAT DEB w czasie rzeczywistym z AllMySat

Download on the App Store